Location: Jalan Sepang
(2.8072°N, 101.8021°E)
Time: 04:53:25
(UTC+00:00)

CZ-4 R/B - Pass Details

Date: 15 May 2026
Orbit: 676 x 743 km, 98.7° (Epoch: 7 June)

Event Time Altitude Azimuth Distance (km) Brightness Sun altitude
Rises 22:34:42 0° 8° (N) 3,131 7.6 -7.2°
Reaches altitude 10° 22:36:57 10° 6° (N) 2,220 6.8 -6.7°
Maximum altitude 22:41:49 72° 283° (WNW) 776 3.9 -5.5°
Drops below altitude 10° 22:46:46 10° 199° (SSW) 2,250 6.1 -4.4°
Sets 22:49:04 0° 196° (SSW) 3,176 6.8 -3.8°
